Regional Weather Roundup
Issued by NWS

Home | Current Version | Previous Version | Text Only | Print | Product List | Glossary On
Versions: 1 2 3 4 5 6 7 8 9 10 11 12 13 14 15 16 17 18 19 20 21 22 23 24 25 26 27 28 29 30 31 32 33 34 35 36 37 38 39 40 41 42 43 44 45 46 47 48 49 50
000
ASUS46 KSEW 080110
RWRWA

WASHINGTON REGIONAL WEATHER ROUNDUP
NATIONAL WEATHER SERVICE SEATTLE WA
600 PM PDT TUE JUL 07 2015

NOTE:"FAIR" INDICATES FEW OR NO CLOUDS BELOW 12,000 FEET WITH NO
SIGNIFICANT WEATHER AND/OR OBSTRUCTIONS TO VISIBILITY.

WAZ505-507>509-080200-
SEATTLE, TACOMA, EVERETT, AND VICINITY

CITY           SKY/WX    TMP DP  RH WIND       PRES   REMARKS
EVERETT        SUNNY     68  55  63 N6        29.94F
BOEING FIELD   PTSUNNY   78  55  44 NW8       29.89F
RENTON         SUNNY     80  56  43 NW9       29.89F
SEATAC AIRPORT PTSUNNY   78  56  46 NW9       29.91F
JBLM-MCCHORD   SUNNY     82  51  33 N7        29.89F
PUYALLUP       FAIR      82  57  42 CALM      29.91F
BREMERTON      SUNNY     77  57  50 NE10      29.93F
JBLM-FT LEWIS  SUNNY     83  49  30 VRB2      29.88F
TACOMA NARROWS SUNNY     78  55  44 NE6       29.90F
$$

WAZ001-503-506-510-514-515-080200-
NORTH INTERIOR

CITY           SKY/WX    TMP DP  RH WIND       PRES   REMARKS
BELLINGHAM     SUNNY     71  56  58 SE8       29.91F
FRIDAY HARBOR  SUNNY     69  55  60 S5        29.93F
EASTSOUND      SUNNY     72  55  56 S9        29.89F
PORT ANGELES   SUNNY     65  53  65 NW12G18   29.94F
PORT TOWNSEND  FAIR      66  55  68 VRB6G13   29.92F
NAS WHIDBEY    PTSUNNY   65  54  67 W7        29.97F
ARLINGTON      SUNNY     73  55  53 NW12      29.92F
BURLINGTON     SUNNY     72  57  60 SW7       29.92F
$$

WAZ020-022-039-040-504-511-512-080200-
SOUTHWEST INTERIOR

CITY           SKY/WX    TMP DP  RH WIND       PRES   REMARKS
SHELTON        SUNNY     81  56  42 SW14      29.87F
OLYMPIA        SUNNY     85  54  34 NE8       29.88F
CHEHALIS       FAIR      86  57  37 VRB5      29.89F
KELSO          SUNNY     81  59  47 W13       29.91S
VANCOUVER      SUNNY     86  57  37 W8        29.84F
SCAPPOOSE, OR  SUNNY     87  56  34 N10       29.84F
PORTLAND, OR   MOSUNNY   87  60  40 W9        29.85F
$$

WAZ021-516-517-080200-
WASHINGTON COAST

CITY           SKY/WX    TMP DP  RH WIND       PRES   REMARKS
FORKS          SUNNY     66  56  70 W8        29.96F
HOQUIAM        SUNNY     67  55  65 W13       29.95F
ASTORIA, OR    SUNNY     68  55  63 NW8       29.95F
$$

WAZ019-023-024-040-518-519-080200-
CASCADE MOUNTAINS AND COLUMBIA GORGE

CITY           SKY/WX    TMP DP  RH WIND       PRES   REMARKS
TROUTDALE, OR  SUNNY     87  55  33 W8        29.83F
THE DALLES, OR SUNNY     96  44  16 NW13G22   29.73F HX  92
$$

WAZ026-027-041>044-520-521-080200-
EAST SLOPES

CITY           SKY/WX    TMP DP  RH WIND       PRES   REMARKS
OMAK           PTSUNNY   97  41  14 N8        29.79F HAZE    HX  92
WENATCHEE      SUNNY     97  43  15 N6        29.76F HX  93
ELLENSBURG     SUNNY     95  47  19 NW17      29.80F HX  91
YAKIMA         SUNNY     99  44  15 SW3       29.74F HX  95
$$

WAZ028-034-035-080200-
COLUMBIA BASIN

CITY           SKY/WX    TMP DP  RH WIND       PRES   REMARKS
EPHRATA        SUNNY     98  44  15 N8        29.76F HX  94
MOSES LAKE     SUNNY     95  45  17 SE8       29.76F HX  91
PASCO          SUNNY     99  45  15 VRB3      29.71F HX  95
HERMISTON, OR  SUNNY     99  39  12 E3        29.72F HX  94
$$

WAZ036>038-080200-
NORTHEAST WASHINGTON

CITY           SKY/WX    TMP DP  RH WIND       PRES   REMARKS
SPOKANE GEIGER PTSUNNY   89  47  23 NE15      29.88F
SPOKANE FELTS  MOSUNNY   90  46  21 N6G16     29.86F
FAIRCHILD AFB  MOSUNNY   87  47  25 NE14      29.89F
COEURDALENE,ID SUNNY     86  48  26 NE13      29.88F
DEER PARK      MOSUNNY   87  49  26 N9        29.89F
$$

WAZ029>033-080200-
SOUTHEAST WASHINGTON

CITY           SKY/WX    TMP DP  RH WIND       PRES   REMARKS
PULLMAN        SUNNY     89  39  17 W7        29.88F
LEWISTON, ID   MOSUNNY   95  45  17 CALM      29.77F HX  91
WALLA WALLA    SUNNY     97  31   9 SW10      29.76F HX  91
PENDLETON, OR  SUNNY     96  29   9 NW12      29.78F HX  90
$$



USA.gov is the U.S. government's official web portal to all federal, state and local government web resources and services.